{"data":{"norad_id":54172,"epoch":"2026-05-25T00:51:21.570048Z","epoch_age_seconds":75171,"freshness":"FRESH","line1":"1 54172U 22141R   26145.03566632 -.00001373  00000+0 -68150-4 0  9997","line2":"2 54172  53.2149  21.3617 0001595  88.5908 271.5267 15.08844840197383","mean_motion":15.0884484,"eccentricity":0.0001595,"inclination_deg":53.2149,"raan_deg":21.3617,"arg_perigee_deg":88.5908,"mean_anomaly_deg":271.5267,"bstar":-6.815e-5,"rev_number":19738,"period_min":95.437248537762,"perigee_km":538.62519549751,"apogee_km":540.83199462233,"semimajor_km":6917.8655950599,"source":"CELESTRAK","updated_at":"2026-05-25T13:38:17.662254Z"}}